Location: Karcze
(52.0945°N, 22.4786°E)
Time: 12:44:25
(UTC+00:00)

MOZ.5/SAFIR/RUBIN 5/SL-8 - Pass Details

Date: 14 July 2020
Orbit: 678 x 705 km, 98.1° (Epoch: 07 August)

Event Time Altitude Azimuth Distance (km) Brightness Sun altitude
Exits shadow 00:25:51 18° 198° (SSW) 1,697 5.2 -12.5°
Maximum altitude 00:29:04 42° 262° (W) 1,000 4.4 -12.2°
Drops below altitude 10° 00:33:38 10° 334° (NNW) 2,188 6.9 -11.9°
Sets 00:36:01 0° 341° (NNW) 3,113 7.8 -11.8°
